Weather History for Muscatine, IA

Change the Weather History Date:

Thursday, June 13, 2013

  Actual Average Record
Temperature  
Mean Temperature 74 °F -  
Max Temperature 84 °F 83 °F 99 °F (1987)
Min Temperature 64 °F 60 °F 39 °F (1985)
Cooling Degree Days 9    
Growing Degree Days 24 (Base 50)    
Moisture  
Dew Point 54 °F    
Average Humidity 54    
Maximum Humidity 83    
Minimum Humidity 26    
Precipitation  
Precipitation 0.00 in - - ()
Sea Level Pressure  
Sea Level Pressure 29.94 in    
Wind  
Wind Speed 11 mph (North)    
Max Wind Speed 20 mph    
Max Gust Speed 25 mph    
Visibility 10 miles    
Events Rain    
Averages and records for this station are not official NWS values.
T = Trace of Precipitation, MM = Missing Value Source: NWS Daily Summary

Daily Weather History Graph

Daily Weather History Graph

Search for Another Location

Airport:

Trip Planner

Search our weather history database for the weather conditions in past years. The results will help you decide how hot, cold, wet, or windy it might be!

Date:

Astronomy

Jun. 13, 2013 Rise Set
Actual Time 5:30 AM CDT 8:39 PM CDT
Civil Twilight 4:56 AM CDT 9:12 PM CDT
Nautical Twilight 4:13 AM CDT 9:56 PM CDT
Astronomical Twilight 3:21 AM CDT 10:47 PM CDT
Moon 10:10 AM CDT (6/13) 11:42 PM CDT (6/13)
Length of Visible Light 16h 16m
Length of Day
15h 08m
Waxing Crescent, 22% of the Moon is Illuminated
Jun 13
Waxing Crescent
Jun 16
First Quarter
Jun 23
Full
Jun 29
Last Quarter
Jul 8
New

Hourly Weather History & Observations

Time (CDT) Temp. Dew Point Humidity Pressure Visibility Wind Dir Wind Speed Gust Speed Precip Events Conditions
12:15 AM 68.0 °F 60.8 °F 78% 29.72 in 10.0 mi West 17.3 mph - N/A   Overcast
12:35 AM 68.0 °F 60.8 °F 78% 29.72 in 10.0 mi WNW 15.0 mph 18.4 mph N/A   Overcast
12:55 AM 68.0 °F 60.8 °F 78% 29.72 in 7.0 mi West 15.0 mph 18.4 mph N/A Rain Light Rain
1:15 AM 68.0 °F 60.8 °F 78% 29.74 in 10.0 mi WNW 10.4 mph 13.8 mph N/A   Overcast
1:35 AM 68.0 °F 60.8 °F 78% 29.74 in 10.0 mi WNW 12.7 mph - N/A   Overcast
1:55 AM 68.0 °F 60.8 °F 78% 29.75 in 10.0 mi WNW 11.5 mph - N/A   Overcast
2:15 AM 68.0 °F 62.6 °F 83% 29.77 in 10.0 mi NNW 12.7 mph 19.6 mph N/A   Overcast
2:35 AM 69.8 °F 62.6 °F 78% 29.78 in 10.0 mi North 15.0 mph 21.9 mph N/A   Overcast
2:55 AM 69.8 °F 62.6 °F 78% 29.80 in 10.0 mi North 17.3 mph 24.2 mph N/A   Overcast
3:15 AM 69.8 °F 60.8 °F 73% 29.81 in 10.0 mi North 12.7 mph 23.0 mph N/A   Overcast
3:35 AM 66.2 °F 60.8 °F 83% 29.81 in 10.0 mi North 19.6 mph 25.3 mph N/A   Overcast
3:55 AM 66.2 °F 60.8 °F 83% 29.82 in 10.0 mi North 16.1 mph - N/A   Overcast
4:15 AM 66.2 °F 59.0 °F 78% 29.85 in 10.0 mi North 18.4 mph 24.2 mph N/A   Overcast
4:35 AM 66.2 °F 59.0 °F 78% 29.86 in 10.0 mi North 13.8 mph - N/A   Overcast
4:55 AM 66.2 °F 57.2 °F 73% 29.87 in 10.0 mi North 13.8 mph 19.6 mph N/A   Overcast
5:15 AM 64.4 °F 57.2 °F 77% 29.88 in 10.0 mi North 11.5 mph - N/A   Scattered Clouds
5:35 AM 64.4 °F 57.2 °F 77% 29.90 in 10.0 mi North 9.2 mph - N/A   Clear
5:55 AM 64.4 °F 57.2 °F 77% 29.91 in 10.0 mi NNW 10.4 mph - N/A   Clear
6:15 AM 64.4 °F 55.4 °F 73% 29.92 in 10.0 mi North 11.5 mph - N/A   Clear
6:35 AM 64.4 °F 55.4 °F 73% 29.92 in 10.0 mi North 12.7 mph - N/A   Clear
6:55 AM 64.4 °F 55.4 °F 73% 29.93 in 10.0 mi North 9.2 mph - N/A   Clear
7:15 AM 64.4 °F 55.4 °F 73% 29.93 in 10.0 mi North 9.2 mph - N/A   Clear
7:35 AM 66.2 °F 55.4 °F 68% 29.94 in 10.0 mi North 9.2 mph - N/A   Clear
7:55 AM 68.0 °F 55.4 °F 64% 29.95 in 10.0 mi North 8.1 mph - N/A   Clear
8:15 AM 69.8 °F 55.4 °F 60% 29.96 in 10.0 mi North 8.1 mph - N/A   Clear
8:35 AM 69.8 °F 53.6 °F 56% 29.98 in 10.0 mi North 9.2 mph - N/A   Clear
8:55 AM 71.6 °F 53.6 °F 53% 29.98 in 10.0 mi North 9.2 mph - N/A   Clear
9:15 AM 71.6 °F 53.6 °F 53% 29.99 in 10.0 mi North 8.1 mph - N/A   Clear
9:35 AM 73.4 °F 51.8 °F 47% 30.00 in 10.0 mi North 9.2 mph - N/A   Clear
9:55 AM 73.4 °F 51.8 °F 47% 30.00 in 10.0 mi North 10.4 mph - N/A   Clear
10:15 AM 75.2 °F 51.8 °F 44% 30.00 in 10.0 mi North 8.1 mph - N/A   Clear
10:35 AM 75.2 °F 51.8 °F 44% 30.00 in 10.0 mi North 4.6 mph - N/A   Clear
10:55 AM 75.2 °F 51.8 °F 44% 30.00 in 10.0 mi NNE 5.8 mph - N/A   Clear
11:15 AM 77.0 °F 53.6 °F 44% 30.00 in 10.0 mi NNE 8.1 mph - N/A   Clear
11:35 AM 78.8 °F 53.6 °F 42% 30.00 in 10.0 mi North 3.5 mph - N/A   Clear
11:55 AM 78.8 °F 50.0 °F 36% 30.00 in 10.0 mi NNW 4.6 mph - N/A   Clear
12:15 PM 78.8 °F 50.0 °F 36% 30.01 in 10.0 mi NNW 5.8 mph - N/A   Clear
12:35 PM 80.6 °F 50.0 °F 34% 30.01 in 10.0 mi North 8.1 mph - N/A   Clear
12:55 PM 80.6 °F 50.0 °F 34% 30.00 in 10.0 mi North 5.8 mph - N/A   Clear
1:15 PM 80.6 °F 48.2 °F 32% 30.01 in 10.0 mi North 8.1 mph - N/A   Clear
1:35 PM 82.4 °F 50.0 °F 32% 30.01 in 10.0 mi North 6.9 mph - N/A   Scattered Clouds
1:55 PM 82.4 °F 48.2 °F 30% 30.00 in 10.0 mi North 12.7 mph - N/A   Clear
2:15 PM 80.6 °F 46.4 °F 30% 30.00 in 10.0 mi North 3.5 mph - N/A   Scattered Clouds
2:35 PM 82.4 °F 48.2 °F 30% 29.99 in 10.0 mi North 8.1 mph 19.6 mph N/A   Scattered Clouds
2:55 PM 82.4 °F 48.2 °F 30% 29.99 in 10.0 mi North 4.6 mph - N/A   Scattered Clouds
3:15 PM 82.4 °F 50.0 °F 32% 29.99 in 10.0 mi NNE 8.1 mph - N/A   Scattered Clouds
3:35 PM 84.2 °F 48.2 °F 29% 29.98 in 10.0 mi NNE 5.8 mph - N/A   Scattered Clouds
3:55 PM 84.2 °F 46.4 °F 27% 29.97 in 10.0 mi NNE 6.9 mph - N/A   Scattered Clouds
4:15 PM 84.2 °F 50.0 °F 30% 29.98 in 10.0 mi North 6.9 mph - N/A   Scattered Clouds
4:35 PM 82.4 °F 48.2 °F 30% 29.98 in 10.0 mi NNW 9.2 mph - N/A   Clear
4:55 PM 82.4 °F 48.2 °F 30% 29.98 in 10.0 mi North 9.2 mph - N/A   Clear
5:15 PM 82.4 °F 48.2 °F 30% 29.99 in 10.0 mi NNW 6.9 mph - N/A   Scattered Clouds
5:35 PM 82.4 °F 46.4 °F 28% 29.99 in 10.0 mi NNW 8.1 mph - N/A   Clear
5:55 PM 82.4 °F 44.6 °F 26% 30.00 in 10.0 mi North 3.5 mph - N/A   Clear
6:15 PM 82.4 °F 44.6 °F 26% 30.00 in 10.0 mi North 6.9 mph 10.4 mph N/A   Scattered Clouds
6:35 PM 80.6 °F 46.4 °F 30% 30.00 in 10.0 mi NNW 6.9 mph - N/A   Clear
6:55 PM 80.6 °F 46.4 °F 30% 30.01 in 10.0 mi NW 8.1 mph - N/A   Clear
7:15 PM 80.6 °F 48.2 °F 32% 30.01 in 10.0 mi North 6.9 mph - N/A   Scattered Clouds
7:35 PM 78.8 °F 51.8 °F 39% 30.01 in 10.0 mi North 4.6 mph - N/A   Clear
7:55 PM 77.0 °F 51.8 °F 41% 30.01 in 10.0 mi NNE 5.8 mph - N/A   Clear
8:15 PM 75.2 °F 53.6 °F 47% 30.00 in 10.0 mi NNE 4.6 mph - N/A   Clear
8:35 PM 73.4 °F 53.6 °F 50% 30.00 in 10.0 mi NNE 3.5 mph - N/A   Clear
8:55 PM 71.6 °F 53.6 °F 53% 30.00 in 10.0 mi Calm Calm - N/A   Clear
9:15 PM 69.8 °F 55.4 °F 60% 30.00 in 10.0 mi Calm Calm - N/A   Clear
9:35 PM 69.8 °F 55.4 °F 60% 30.00 in 10.0 mi NE 5.8 mph - N/A   Clear
9:55 PM 66.2 °F 55.4 °F 68% 30.00 in 10.0 mi NE 4.6 mph - N/A   Clear
10:15 PM 66.2 °F 55.4 °F 68% 30.00 in 10.0 mi NE 4.6 mph - N/A   Clear
10:35 PM 66.2 °F 53.6 °F 64% 30.00 in 10.0 mi NE 5.8 mph - N/A   Clear
10:55 PM 64.4 °F 53.6 °F 68% 30.00 in 10.0 mi NE 6.9 mph - N/A   Clear
11:15 PM 64.4 °F 53.6 °F 68% 29.99 in 10.0 mi NE 4.6 mph - N/A   Clear
11:35 PM 64.4 °F 51.8 °F 64% 29.99 in 10.0 mi Calm Calm - N/A   Clear
11:55 PM 64.4 °F 51.8 °F 64% 30.00 in 10.0 mi NE 3.5 mph - N/A   Clear